Oceana NAS, VA

11:29 PM EDT on May 26, 2017 (GMT -0400)
Oceana Naval Air Station

Weather History for KNTU - March, 2014

Change the Weather History Date:

Wednesday, March 26, 2014

  Actual Average Record
Temperature  
Mean Temperature 38 °F -  
Max Temperature 43 °F 59 °F 79 °F (2003)
Min Temperature 32 °F 41 °F 32 °F (2014)
Degree Days  
Heating Degree Days 28    
Moisture  
Dew Point 20 °F    
Average Humidity 54    
Maximum Humidity 86    
Minimum Humidity 27    
Precipitation  
Precipitation 0.00 in - - ()
Sea Level Pressure  
Sea Level Pressure 30.04 in    
Wind  
Wind Speed 22 mph (NW)    
Max Wind Speed 28 mph    
Max Gust Speed 40 mph    
Visibility 10 miles    
Events Snow    
Averages and records for this station are not official NWS values.
T = Trace of Precipitation, MM = Missing Value Source: NWS Daily Summary

Daily Weather History Graph

Daily Weather History Graph

Search for Another Location

Airport or City:

Trip Planner

Search our weather history database for the weather conditions in past years. The results will help you decide how hot, cold, wet, or windy it might be!

Date:

Astronomy

Mar. 26, 2014 Rise Set
Actual Time 6:58 AM EDT 7:21 PM EDT
Civil Twilight 6:32 AM EDT 7:47 PM EDT
Nautical Twilight 6:02 AM EDT 8:17 PM EDT
Astronomical Twilight 5:31 AM EDT 8:48 PM EDT
Moon 3:59 AM EDT (3/26) 3:03 PM EDT (3/26)
Length of Visible Light 13h 14m
Length of Day
12h 22m
Waning Crescent, 22% of the Moon is Illuminated
Mar 26
Waning Crescent
Mar 30
New
Apr 7
First Quarter
Apr 15
Full
Apr 22
Last Quarter

Hourly Weather History & Observations

Time (EDT) Temp. Windchill Dew Point Humidity Pressure Visibility Wind Dir Wind Speed Gust Speed Precip Events Conditions
12:30 AM 36.0 °F 24.4 °F 32.0 °F 86% 29.79 in 6.0 mi NNW 23.0 mph 38.0 mph 0.00 in Snow Light Snow
12:56 AM 36.0 °F 23.9 °F 30.9 °F 82% 29.81 in 9.0 mi NNW 25.3 mph 32.2 mph 0.00 in Snow Light Snow
1:08 AM 36.0 °F 24.7 °F 30.9 °F 82% 29.80 in 9.0 mi NNW 21.9 mph 33.4 mph 0.00 in   Overcast
1:24 AM 35.1 °F 23.3 °F 30.0 °F 82% 29.81 in 10.0 mi NNW 23.0 mph 29.9 mph 0.00 in   Mostly Cloudy
1:56 AM 35.1 °F 23.0 °F 28.9 °F 78% 29.83 in 10.0 mi NNW 24.2 mph 34.5 mph 0.00 in   Mostly Cloudy
2:56 AM 35.1 °F 22.2 °F 27.0 °F 72% 29.85 in 10.0 mi NNW 27.6 mph 34.5 mph N/A   Mostly Cloudy
3:44 AM 35.1 °F 24.5 °F 28.9 °F 78% 29.85 in 10.0 mi NW 18.4 mph 24.2 mph N/A   Mostly Cloudy
3:56 AM 35.1 °F 23.3 °F 28.0 °F 76% 29.86 in 10.0 mi NW 23.0 mph 28.8 mph N/A   Mostly Cloudy
4:18 AM 35.1 °F 23.5 °F 28.0 °F 76% 29.87 in 10.0 mi NW 21.9 mph 31.1 mph N/A   Overcast
4:56 AM 34.0 °F 23.4 °F 27.0 °F 75% 29.90 in 10.0 mi NW 17.3 mph - N/A   Overcast
5:56 AM 34.0 °F 20.8 °F 26.1 °F 73% 29.93 in 10.0 mi NNW 27.6 mph 36.8 mph N/A   Mostly Cloudy
6:56 AM 33.1 °F 21.5 °F 24.1 °F 70% 29.98 in 10.0 mi NW 19.6 mph 29.9 mph N/A   Mostly Cloudy
7:56 AM 33.1 °F 22.2 °F 19.9 °F 59% 30.01 in 10.0 mi NW 17.3 mph 31.1 mph N/A   Scattered Clouds
8:56 AM 35.1 °F 23.3 °F 17.1 °F 48% 30.05 in 10.0 mi WNW 23.0 mph 35.7 mph N/A   Partly Cloudy
9:56 AM 36.0 °F 23.7 °F 16.0 °F 44% 30.09 in 10.0 mi NW 26.5 mph 40.3 mph N/A   Partly Cloudy
10:56 AM 37.0 °F 25.4 °F 15.1 °F 41% 30.11 in 10.0 mi NW 25.3 mph 35.7 mph N/A   Scattered Clouds
11:56 AM 39.0 °F 28.3 °F 14.0 °F 36% 30.12 in 10.0 mi NW 24.2 mph 35.7 mph N/A   Mostly Cloudy
12:56 PM 39.9 °F 29.0 °F 12.9 °F 33% 30.13 in 10.0 mi NNW 26.5 mph 33.4 mph N/A   Mostly Cloudy
1:56 PM 39.9 °F 29.2 °F 14.0 °F 35% 30.13 in 10.0 mi WNW 25.3 mph 33.4 mph N/A   Mostly Cloudy
2:56 PM 42.1 °F 32.8 °F 12.9 °F 31% 30.12 in 10.0 mi NW 21.9 mph 32.2 mph N/A   Scattered Clouds
3:56 PM 42.1 °F 32.8 °F 10.9 °F 28% 30.14 in 10.0 mi NW 21.9 mph 31.1 mph N/A   Partly Cloudy
4:56 PM 42.1 °F 32.8 °F 10.0 °F 27% 30.15 in 10.0 mi WNW 21.9 mph 28.8 mph N/A   Partly Cloudy
5:56 PM 41.0 °F 31.4 °F 9.0 °F 27% 30.16 in 10.0 mi NW 21.9 mph 31.1 mph N/A   Partly Cloudy
6:56 PM 39.9 °F 30.5 °F 8.1 °F 27% 30.20 in 10.0 mi WNW 19.6 mph 28.8 mph N/A   Partly Cloudy
7:56 PM 37.9 °F 30.9 °F 10.0 °F 32% 30.23 in 10.0 mi WNW 10.4 mph - N/A   Clear
8:56 PM 37.0 °F 31.6 °F 10.9 °F 34% 30.27 in 10.0 mi WNW 6.9 mph - N/A   Clear
9:56 PM 35.1 °F 30.1 °F 14.0 °F 42% 30.29 in 10.0 mi NW 5.8 mph - N/A   Clear
10:56 PM 34.0 °F 28.8 °F 15.1 °F 46% 30.32 in 10.0 mi NW 5.8 mph - N/A   Clear
11:56 PM 32.0 °F 24.2 °F 15.1 °F 50% 30.34 in 10.0 mi NNW 9.2 mph - N/A   Clear